Weather History for Billings, MT

Change the Weather History Date:

Sunday, January 20, 2013

  Actual Average Record
Temperature  
Mean Temperature 27 °F 27 °F  
Max Temperature 40 °F 37 °F 56 °F (1981)
Min Temperature 14 °F 18 °F -27 °F (1954)
Degree Days  
Heating Degree Days 38 38  
Month to date heating degree days 739 767  
Since 1 July heating degree days 3280 3588  
Cooling Degree Days 0 0  
Month to date cooling degree days 0 0  
Year to date cooling degree days 0 0  
Moisture  
Dew Point 14 °F    
Average Humidity 66    
Maximum Humidity 84    
Minimum Humidity 47    
Precipitation  
Precipitation 0.00 in 0.02 in 0.50 in (1962)
Month to date precipitation 0.39 0.31  
Year to date precipitation 0.39 0.31  
Snow  
Snow 0.00 in 0.30 in 6.50 in (1998)
Month to date snowfall 7.4 5.7  
Since 1 July snowfall 23.7 25.6  
Snow Depth T in    
Sea Level Pressure  
Sea Level Pressure 30.45 in    
Wind  
Wind Speed 10 mph (NE)    
Max Wind Speed 22 mph    
Max Gust Speed 28 mph    
Visibility 10 miles    
Events      
T = Trace of Precipitation, MM = Missing Value Source: NWS Daily Summary

Daily Weather History Graph

Daily Weather History Graph

Search for Another Location

Airport:

Trip Planner

Search our weather history database for the weather conditions in past years. The results will help you decide how hot, cold, wet, or windy it might be!

Date:

Astronomy

Jan. 20, 2013 Rise Set
Actual Time 7:47 AM MST 5:03 PM MST
Civil Twilight 7:14 AM MST 5:36 PM MST
Nautical Twilight 6:38 AM MST 6:12 PM MST
Astronomical Twilight 6:02 AM MST 6:48 PM MST
Moon 12:07 PM MST (1/20) 2:21 AM MST (1/20)
Length of Visible Light 10h 21m
Length of Day
9h 15m
Waxing Gibbous, 67% of the Moon is Illuminated
Jan 20
Waxing Gibbous
Jan 26
Full
Feb 3
Last Quarter
Feb 10
New
Feb 17
First Quarter

Hourly Weather History & Observations

Time (MST) Temp. Windchill Dew Point Humidity Pressure Visibility Wind Dir Wind Speed Gust Speed Precip Events Conditions
12:53 AM 33.1 °F 23.0 °F 17.1 °F 52% 30.17 in 10.0 mi WSW 15.0 mph - N/A   Clear
1:53 AM 36.0 °F 26.3 °F 17.1 °F 46% 30.23 in 10.0 mi NW 16.1 mph - N/A   Clear
2:53 AM 35.1 °F 24.5 °F 17.1 °F 48% 30.30 in 10.0 mi North 18.4 mph - N/A   Clear
3:53 AM 30.9 °F 20.7 °F 18.0 °F 59% 30.37 in 10.0 mi NNE 13.8 mph - N/A   Clear
4:53 AM 28.0 °F 18.1 °F 19.0 °F 69% 30.43 in 10.0 mi NE 11.5 mph - N/A   Partly Cloudy
5:53 AM 25.0 °F 12.6 °F 18.0 °F 75% 30.49 in 10.0 mi NE 15.0 mph - N/A   Overcast
6:14 AM 25.0 °F 13.1 °F 18.0 °F 75% 30.39 in 10.0 mi NE 13.8 mph - N/A   Overcast
6:53 AM 24.1 °F 16.0 °F 18.0 °F 77% 30.53 in 10.0 mi NNE 6.9 mph - N/A   Overcast
7:53 AM 23.0 °F 15.8 °F 18.0 °F 81% 30.54 in 10.0 mi ENE 5.8 mph - N/A   Overcast
8:53 AM 21.9 °F 12.5 °F 17.1 °F 82% 30.56 in 10.0 mi ENE 8.1 mph - N/A   Overcast
9:53 AM 21.0 °F 10.6 °F 16.0 °F 81% 30.56 in 10.0 mi ENE 9.2 mph - N/A   Overcast
10:53 AM 19.9 °F 8.6 °F 15.1 °F 81% 30.55 in 10.0 mi ENE 10.4 mph - N/A   Overcast
11:53 AM 21.0 °F 10.6 °F 14.0 °F 74% 30.51 in 10.0 mi NE 9.2 mph - N/A   Overcast
12:53 PM 21.0 °F 10.6 °F 15.1 °F 78% 30.48 in 10.0 mi ENE 9.2 mph - N/A   Overcast
1:53 PM 21.0 °F 9.3 °F 14.0 °F 74% 30.46 in 10.0 mi NE 11.5 mph - N/A   Overcast
2:53 PM 19.9 °F 7.9 °F 12.0 °F 71% 30.46 in 10.0 mi ENE 11.5 mph - N/A   Overcast
3:53 PM 19.0 °F 6.8 °F 10.9 °F 71% 30.46 in 10.0 mi NE 11.5 mph - N/A   Mostly Cloudy
4:53 PM 18.0 °F 7.7 °F 10.9 °F 74% 30.47 in 10.0 mi ENE 8.1 mph - N/A   Mostly Cloudy
5:53 PM 18.0 °F 7.7 °F 10.9 °F 74% 30.48 in 10.0 mi NE 8.1 mph - N/A   Mostly Cloudy
6:53 PM 17.1 °F 5.0 °F 10.0 °F 74% 30.49 in 10.0 mi ENE 10.4 mph - N/A   Mostly Cloudy
7:53 PM 17.1 °F 7.6 °F 10.0 °F 74% 30.48 in 10.0 mi NE 6.9 mph - N/A   Overcast
8:53 PM 16.0 °F 5.3 °F 10.0 °F 77% 30.47 in 10.0 mi NE 8.1 mph - N/A   Mostly Cloudy
9:53 PM 15.1 °F 4.2 °F 9.0 °F 77% 30.47 in 10.0 mi NE 8.1 mph - N/A   Overcast
10:53 PM 14.0 °F 6.5 °F 9.0 °F 80% 30.46 in 10.0 mi North 4.6 mph - N/A   Overcast
11:03 PM 14.0 °F 6.5 °F 9.0 °F 80% 30.28 in 10.0 mi NNE 4.6 mph - N/A   Overcast
11:53 PM 16.0 °F - 10.0 °F 77% 30.40 in 10.0 mi Calm Calm - N/A   Overcast